X-SAT (37389 NORAD) Tracking and Keplerian Element Data

This shows tracking and keplerian element data for the satellite.

Feedback or suggestion? Click here.




ElementValue
Catalog37389
NameX-SAT
Epoch Orbit39333
Epoch Day316.75437087
Epoch Year2018
RAAN22.5065
Inclination98.5169
Eccentricity0.001375
Argument of Perigee187.7694
Mean Anonmoly172.3273
Mean Motion14.24363845
Decay Rate-7E-08
L11 37389U 11015C 18316.75437087 -.00000007 00000-0 15379-4 0 9995
L22 37389 98.5169 22.5065 0013750 187.7694 172.3273 14.24363845393334

Live tracking and technical data element details for X-SAT (NORAD 37389). X-SAT can be tracked NOW for your location showing map with azimuth and elevation plus other details from your city location.

Track the satellite on the map from your city or location and see movement details for azimuth, elevation, latitude, longitude, range, height, and movement on the map or in text.







IsCatalogInMostPopularTable: catalog: 37389, numindb: 24
Update: records affected: 1



GetName: 37389 X-SAT

Hit Count: updated at: Tue, 13 Nov 2018 22:16:50 GMT